Time,TemperatureF,DewpointF,PressureIn,WindDirection,WindDirectionDegrees,WindSpeedMPH,WindSpeedGustMPH,Humidity,HourlyPrecipIn,Conditions,Clouds,dailyrainin,SoftwareType,DateUTC
2013-07-16 00:01:00,54.5,51.3,0.00,WNW,296,1.6,4.3,89,0.00,,,0.00,WUHU216CR1000,2013-07-16 07:01:00,
2013-07-16 00:06:00,54.5,51.3,0.00,SSW,203,1.7,5.4,89,0.00,,,0.00,WUHU216CR1000,2013-07-16 07:06:00,
2013-07-16 00:11:00,54.5,51.3,0.00,SSW,203,1.7,5.4,89,0.00,,,0.00,WUHU216CR1000,2013-07-16 07:11:00,
2013-07-16 00:16:00,54.5,51.3,0.00,SSW,203,1.7,5.4,89,0.00,,,0.00,WUHU216CR1000,2013-07-16 07:16:00,
2013-07-16 00:21:00,54.4,51.5,0.00,South,187,2.5,5.4,90,0.00,,,0.00,WUHU216CR1000,2013-07-16 07:21:00,
2013-07-16 00:26:00,54.4,51.5,0.00,South,187,2.5,4.9,90,0.00,,,0.00,WUHU216CR1000,2013-07-16 07:26:00,
2013-07-16 00:31:00,54.4,51.5,0.00,South,187,2.5,4.9,90,0.00,,,0.00,WUHU216CR1000,2013-07-16 07:31:00,
2013-07-16 00:36:00,54.0,51.4,0.00,SE,142,1.7,4.9,91,0.00,,,0.00,WUHU216CR1000,2013-07-16 07:36:00,
2013-07-16 00:41:00,54.0,51.4,0.00,SE,142,1.7,4.3,91,0.00,,,0.00,WUHU216CR1000,2013-07-16 07:41:00,
2013-07-16 00:46:00,54.0,51.4,0.00,SE,142,1.7,4.3,91,0.00,,,0.00,WUHU216CR1000,2013-07-16 07:46:00,
2013-07-16 00:51:00,54.1,51.5,0.00,SSE,164,1.2,4.3,91,0.00,,,0.00,WUHU216CR1000,2013-07-16 07:51:00,
2013-07-16 00:56:00,54.1,51.5,0.00,SSE,164,1.2,4.2,91,0.00,,,0.00,WUHU216CR1000,2013-07-16 07:56:00,
2013-07-16 01:01:00,54.1,51.5,0.00,SSE,164,1.2,4.2,91,0.00,,,0.00,WUHU216CR1000,2013-07-16 08:01:00,
2013-07-16 01:06:00,54.1,51.8,0.00,South,175,1.4,4.2,92,0.00,,,0.00,WUHU216CR1000,2013-07-16 08:06:00,
2013-07-16 01:11:00,54.1,51.8,0.00,South,175,1.4,3.6,92,0.00,,,0.00,WUHU216CR1000,2013-07-16 08:11:00,
2013-07-16 01:16:00,54.1,51.8,0.00,South,175,1.4,3.6,92,0.00,,,0.00,WUHU216CR1000,2013-07-16 08:16:00,
2013-07-16 01:21:00,54.2,51.8,0.00,SSE,164,1.7,3.6,92,0.00,,,0.00,WUHU216CR1000,2013-07-16 08:21:00,
2013-07-16 01:26:00,54.2,51.8,0.00,SSE,164,1.7,3.6,92,0.00,,,0.00,WUHU216CR1000,2013-07-16 08:26:00,
2013-07-16 01:31:00,54.2,51.8,0.00,SSE,164,1.7,3.6,92,0.00,,,0.00,WUHU216CR1000,2013-07-16 08:31:00,
2013-07-16 01:36:00,53.9,51.9,0.00,South,186,1.9,3.9,93,0.00,,,0.00,WUHU216CR1000,2013-07-16 08:36:00,
2013-07-16 01:41:00,53.9,51.9,0.00,South,186,1.9,3.9,93,0.00,,,0.00,WUHU216CR1000,2013-07-16 08:41:00,
2013-07-16 01:46:00,53.9,51.9,0.00,South,186,1.9,3.9,93,0.00,,,0.00,WUHU216CR1000,2013-07-16 08:46:00,
2013-07-16 01:51:00,53.8,51.9,0.00,South,174,2.6,6.8,93,0.00,,,0.00,WUHU216CR1000,2013-07-16 08:51:00,
2013-07-16 01:56:00,53.8,51.9,0.00,South,174,2.6,6.8,93,0.00,,,0.00,WUHU216CR1000,2013-07-16 08:56:00,
2013-07-16 02:01:00,53.8,51.9,0.00,South,174,2.6,6.8,93,0.00,,,0.00,WUHU216CR1000,2013-07-16 09:01:00,
2013-07-16 02:06:00,53.6,51.6,0.00,SSE,164,2.1,6.8,93,0.00,,,0.00,WUHU216CR1000,2013-07-16 09:06:00,
2013-07-16 02:11:00,53.6,51.6,0.00,SSE,164,2.1,4.4,93,0.00,,,0.00,WUHU216CR1000,2013-07-16 09:11:00,
2013-07-16 02:16:00,53.6,51.6,0.00,SSE,164,2.1,4.4,93,0.00,,,0.00,WUHU216CR1000,2013-07-16 09:16:00,
2013-07-16 02:21:00,53.7,51.5,0.00,SSW,193,1.5,4.4,92,0.00,,,0.00,WUHU216CR1000,2013-07-16 09:21:00,
2013-07-16 02:26:00,53.7,51.5,0.00,SSW,193,1.5,3.3,92,0.00,,,0.00,WUHU216CR1000,2013-07-16 09:26:00,
2013-07-16 02:31:00,53.7,51.5,0.00,SSW,193,1.5,3.3,92,0.00,,,0.00,WUHU216CR1000,2013-07-16 09:31:00,
2013-07-16 02:36:00,53.5,51.9,0.00,SSW,194,1.2,3.4,94,0.00,,,0.00,WUHU216CR1000,2013-07-16 09:36:00,
2013-07-16 02:41:00,53.5,51.9,0.00,SSW,194,1.2,3.4,94,0.00,,,0.00,WUHU216CR1000,2013-07-16 09:41:00,
2013-07-16 02:46:00,53.5,51.9,0.00,SSW,194,1.2,3.4,94,0.00,,,0.00,WUHU216CR1000,2013-07-16 09:46:00,
2013-07-16 02:51:00,53.5,52.2,0.00,SW,221,1.1,3.4,95,0.00,,,0.00,WUHU216CR1000,2013-07-16 09:51:00,
2013-07-16 02:56:00,53.5,52.2,0.00,SW,221,1.1,2.9,95,0.00,,,0.00,WUHU216CR1000,2013-07-16 09:56:00,
2013-07-16 03:01:00,53.5,52.2,0.00,SW,221,1.1,2.9,95,0.00,,,0.00,WUHU216CR1000,2013-07-16 10:01:00,
2013-07-16 03:06:00,53.4,52.3,0.00,SSE,166,0.9,2.9,96,0.00,,,0.00,WUHU216CR1000,2013-07-16 10:06:00,
2013-07-16 03:11:00,53.4,52.3,0.00,SSE,166,0.9,2.3,96,0.00,,,0.00,WUHU216CR1000,2013-07-16 10:11:00,
2013-07-16 03:16:00,53.4,52.3,0.00,SSE,166,0.9,2.3,96,0.00,,,0.00,WUHU216CR1000,2013-07-16 10:16:00,
2013-07-16 03:21:00,53.5,52.2,0.00,South,174,1.4,3.9,95,0.00,,,0.00,WUHU216CR1000,2013-07-16 10:21:00,
2013-07-16 03:26:00,53.5,52.2,0.00,South,174,1.4,3.9,95,0.00,,,0.00,WUHU216CR1000,2013-07-16 10:26:00,
2013-07-16 03:31:00,53.5,52.2,0.00,South,174,1.4,3.9,95,0.00,,,0.00,WUHU216CR1000,2013-07-16 10:31:00,
2013-07-16 03:36:00,53.7,52.4,0.00,SSE,165,1.2,3.9,95,0.00,,,0.00,WUHU216CR1000,2013-07-16 10:36:00,
2013-07-16 03:41:00,53.7,52.4,0.00,SSE,165,1.2,3.8,95,0.00,,,0.00,WUHU216CR1000,2013-07-16 10:41:00,
2013-07-16 03:46:00,53.7,52.4,0.00,SSE,165,1.2,3.8,95,0.00,,,0.00,WUHU216CR1000,2013-07-16 10:46:00,
2013-07-16 03:51:00,53.6,52.4,0.00,South,186,1.9,5.9,95,0.00,,,0.00,WUHU216CR1000,2013-07-16 10:51:00,
2013-07-16 03:56:00,53.6,52.4,0.00,South,186,1.9,5.9,95,0.00,,,0.00,WUHU216CR1000,2013-07-16 10:56:00,
2013-07-16 04:01:00,53.6,52.4,0.00,South,186,1.9,5.9,95,0.00,,,0.00,WUHU216CR1000,2013-07-16 11:01:00,
2013-07-16 04:06:00,53.3,52.0,0.00,South,190,1.9,5.9,95,0.00,,,0.00,WUHU216CR1000,2013-07-16 11:06:00,
2013-07-16 04:11:00,53.3,52.0,0.00,South,190,1.9,4.2,95,0.00,,,0.00,WUHU216CR1000,2013-07-16 11:11:00,
2013-07-16 04:16:00,53.3,52.0,0.00,South,190,1.9,4.2,95,0.00,,,0.00,WUHU216CR1000,2013-07-16 11:16:00,
2013-07-16 04:21:00,53.4,51.9,0.00,South,171,1.2,4.2,95,0.00,,,0.00,WUHU216CR1000,2013-07-16 11:21:00,
2013-07-16 04:26:00,53.4,51.9,0.00,South,171,1.2,3.3,95,0.00,,,0.00,WUHU216CR1000,2013-07-16 11:26:00,
2013-07-16 04:31:00,53.4,51.9,0.00,South,171,1.2,3.3,95,0.00,,,0.00,WUHU216CR1000,2013-07-16 11:31:00,
2013-07-16 04:36:00,53.5,51.8,0.00,SSE,166,1.1,3.3,94,0.00,,,0.00,WUHU216CR1000,2013-07-16 11:36:00,
2013-07-16 04:41:00,53.5,51.8,0.00,SSE,166,1.1,2.2,94,0.00,,,0.00,WUHU216CR1000,2013-07-16 11:41:00,
2013-07-16 04:46:00,53.5,51.8,0.00,SSE,166,1.1,2.2,94,0.00,,,0.00,WUHU216CR1000,2013-07-16 11:46:00,
2013-07-16 04:51:00,53.5,51.9,0.00,South,188,1.2,3.0,94,0.00,,,0.00,WUHU216CR1000,2013-07-16 11:51:00,
2013-07-16 04:56:00,53.5,51.9,0.00,South,188,1.2,3.0,94,0.00,,,0.00,WUHU216CR1000,2013-07-16 11:56:00,
2013-07-16 05:01:00,53.5,51.9,0.00,South,188,1.2,3.0,94,0.00,,,0.00,WUHU216CR1000,2013-07-16 12:01:00,
2013-07-16 05:06:00,53.5,52.0,0.00,South,176,1.8,3.5,94,0.00,,,0.00,WUHU216CR1000,2013-07-16 12:06:00,
2013-07-16 05:11:00,53.5,52.0,0.00,South,176,1.8,3.5,94,0.00,,,0.00,WUHU216CR1000,2013-07-16 12:11:00,
2013-07-16 05:16:00,53.5,52.0,0.00,South,176,1.8,3.5,94,0.00,,,0.00,WUHU216CR1000,2013-07-16 12:16:00,
2013-07-16 05:21:00,53.6,51.8,0.00,SSW,194,1.6,3.7,94,0.00,,,0.00,WUHU216CR1000,2013-07-16 12:21:00,
2013-07-16 05:26:00,53.6,51.8,0.00,SSW,194,1.6,3.7,94,0.00,,,0.00,WUHU216CR1000,2013-07-16 12:26:00,
2013-07-16 05:30:00,53.6,51.8,0.00,SSW,194,1.6,3.7,94,0.00,,,0.00,WUHU216CR1000,2013-07-16 12:30:00,
2013-07-16 05:35:00,53.7,52.1,0.00,South,175,0.7,3.7,94,0.00,,,0.00,WUHU216CR1000,2013-07-16 12:35:00,
2013-07-16 05:40:00,53.7,52.1,0.00,South,175,0.7,2.0,94,0.00,,,0.00,WUHU216CR1000,2013-07-16 12:40:00,
2013-07-16 05:45:00,53.7,52.1,0.00,South,175,0.7,2.0,94,0.00,,,0.00,WUHU216CR1000,2013-07-16 12:45:00,
2013-07-16 05:50:00,53.8,52.2,0.00,ESE,117,1.2,2.4,94,0.00,,,0.00,WUHU216CR1000,2013-07-16 12:50:00,
2013-07-16 05:55:00,53.8,52.2,0.00,ESE,117,1.2,2.4,94,0.00,,,0.00,WUHU216CR1000,2013-07-16 12:55:00,
2013-07-16 06:01:00,53.8,52.2,0.00,ESE,117,1.2,2.4,94,0.00,,,0.00,WUHU216CR1000,2013-07-16 13:01:00,
2013-07-16 06:06:00,53.6,52.4,0.00,ESE,104,1.1,2.4,96,0.00,,,0.00,WUHU216CR1000,2013-07-16 13:06:00,
2013-07-16 06:11:00,53.6,52.4,0.00,ESE,104,1.1,2.1,96,0.00,,,0.00,WUHU216CR1000,2013-07-16 13:11:00,
2013-07-16 06:16:00,53.7,52.7,0.00,SE,143,0.7,4.9,96,0.00,,,0.00,WUHU216CR1000,2013-07-16 13:16:00,
2013-07-16 06:21:00,53.7,52.7,0.00,SE,143,0.7,4.9,96,0.00,,,0.00,WUHU216CR1000,2013-07-16 13:21:00,
2013-07-16 06:26:00,53.7,52.7,0.00,SE,143,0.7,4.9,96,0.00,,,0.00,WUHU216CR1000,2013-07-16 13:26:00,
2013-07-16 06:41:00,53.8,52.1,0.00,South,186,2.3,5.4,94,0.00,,,0.00,WUHU216CR1000,2013-07-16 13:41:00,
2013-07-16 06:46:00,53.9,52.2,0.00,South,185,2.2,5.4,94,0.00,,,0.00,WUHU216CR1000,2013-07-16 13:46:00,
2013-07-16 06:51:00,53.9,52.2,0.00,South,185,2.2,5.2,94,0.00,,,0.00,WUHU216CR1000,2013-07-16 13:51:00,
2013-07-16 06:56:00,53.9,52.2,0.00,South,185,2.2,5.2,94,0.00,,,0.00,WUHU216CR1000,2013-07-16 13:56:00,
2013-07-16 07:01:00,53.9,52.1,0.00,South,182,2.9,6.7,94,0.00,,,0.00,WUHU216CR1000,2013-07-16 14:01:00,
2013-07-16 07:06:00,53.9,52.1,0.00,South,182,2.9,6.7,94,0.00,,,0.00,WUHU216CR1000,2013-07-16 14:06:00,
2013-07-16 07:11:00,53.9,52.1,0.00,South,182,2.9,6.7,94,0.00,,,0.00,WUHU216CR1000,2013-07-16 14:11:00,
2013-07-16 07:16:00,53.9,52.1,0.00,SSE,150,1.6,6.7,94,0.00,,,0.00,WUHU216CR1000,2013-07-16 14:16:00,
2013-07-16 07:21:00,53.9,52.1,0.00,SSE,150,1.6,3.7,94,0.00,,,0.00,WUHU216CR1000,2013-07-16 14:21:00,
2013-07-16 07:26:00,53.9,52.1,0.00,SSE,150,1.6,3.7,94,0.00,,,0.00,WUHU216CR1000,2013-07-16 14:26:00,
2013-07-16 07:31:00,54.0,52.3,0.00,SE,141,1.2,3.7,94,0.00,,,0.00,WUHU216CR1000,2013-07-16 14:31:00,
2013-07-16 07:36:00,54.0,52.3,0.00,SE,141,1.2,3.7,94,0.00,,,0.00,WUHU216CR1000,2013-07-16 14:36:00,
2013-07-16 07:41:00,54.0,52.3,0.00,SE,141,1.2,3.7,94,0.00,,,0.00,WUHU216CR1000,2013-07-16 14:41:00,
2013-07-16 07:46:00,54.1,52.5,0.00,SSE,157,0.9,3.7,94,0.00,,,0.00,WUHU216CR1000,2013-07-16 14:46:00,
2013-07-16 07:51:00,54.1,52.5,0.00,SSE,157,0.9,2.6,94,0.00,,,0.00,WUHU216CR1000,2013-07-16 14:51:00,
2013-07-16 07:56:00,54.1,52.5,0.00,SSE,157,0.9,2.6,94,0.00,,,0.00,WUHU216CR1000,2013-07-16 14:56:00,
2013-07-16 08:01:00,54.3,52.7,0.00,ESE,113,1.1,2.6,95,0.00,,,0.00,WUHU216CR1000,2013-07-16 15:01:00,
2013-07-16 08:06:00,54.3,52.7,0.00,ESE,113,1.1,2.4,95,0.00,,,0.00,WUHU216CR1000,2013-07-16 15:06:00,
2013-07-16 08:11:00,54.3,52.7,0.00,ESE,113,1.1,2.4,95,0.00,,,0.00,WUHU216CR1000,2013-07-16 15:11:00,
2013-07-16 08:16:00,54.4,52.9,0.00,South,186,1.3,3.3,95,0.00,,,0.00,WUHU216CR1000,2013-07-16 15:16:00,
2013-07-16 08:21:00,54.4,52.9,0.00,South,186,1.3,3.3,95,0.00,,,0.00,WUHU216CR1000,2013-07-16 15:21:00,
2013-07-16 08:26:00,54.4,52.9,0.00,South,186,1.3,3.3,95,0.00,,,0.00,WUHU216CR1000,2013-07-16 15:26:00,
2013-07-16 08:31:00,54.6,53.0,0.00,SSE,166,1.9,3.7,94,0.00,,,0.00,WUHU216CR1000,2013-07-16 15:31:00,
2013-07-16 08:36:00,54.6,53.0,0.00,SSE,166,1.9,3.7,94,0.00,,,0.00,WUHU216CR1000,2013-07-16 15:36:00,
2013-07-16 08:41:00,54.6,53.0,0.00,SSE,166,1.9,3.7,94,0.00,,,0.00,WUHU216CR1000,2013-07-16 15:41:00,
2013-07-16 08:46:00,54.6,53.0,0.00,SSE,166,1.9,3.7,94,0.00,,,0.00,WUHU216CR1000,2013-07-16 15:46:00,
2013-07-16 08:51:00,54.7,52.6,0.00,SE,137,1.9,4.4,93,0.00,,,0.00,WUHU216CR1000,2013-07-16 15:51:00,
2013-07-16 08:56:00,54.7,52.6,0.00,SE,137,1.9,4.4,93,0.00,,,0.00,WUHU216CR1000,2013-07-16 15:56:00,
2013-07-16 09:01:00,54.8,52.7,0.00,SE,143,1.8,4.4,93,0.00,,,0.00,WUHU216CR1000,2013-07-16 16:01:00,
2013-07-16 09:06:00,54.8,52.7,0.00,SE,143,1.8,4.1,93,0.00,,,0.00,WUHU216CR1000,2013-07-16 16:06:00,
2013-07-16 09:11:00,54.8,52.7,0.00,SE,143,1.8,4.1,93,0.00,,,0.00,WUHU216CR1000,2013-07-16 16:11:00,
2013-07-16 09:16:00,55.0,52.6,0.00,ESE,122,2.2,4.5,92,0.00,,,0.00,WUHU216CR1000,2013-07-16 16:16:00,
2013-07-16 09:21:00,55.0,52.6,0.00,ESE,122,2.2,4.5,92,0.00,,,0.00,WUHU216CR1000,2013-07-16 16:21:00,
2013-07-16 09:26:00,55.0,52.6,0.00,ESE,122,2.2,4.5,92,0.00,,,0.00,WUHU216CR1000,2013-07-16 16:26:00,
2013-07-16 09:31:00,55.3,52.8,0.00,ESE,122,2.1,5.3,91,0.00,,,0.00,WUHU216CR1000,2013-07-16 16:31:00,
2013-07-16 09:36:00,55.3,52.8,0.00,ESE,122,2.1,5.3,91,0.00,,,0.00,WUHU216CR1000,2013-07-16 16:36:00,
2013-07-16 09:41:00,55.3,52.8,0.00,ESE,122,2.1,5.3,91,0.00,,,0.00,WUHU216CR1000,2013-07-16 16:41:00,
2013-07-16 09:46:00,55.5,52.5,0.00,SSE,154,1.8,5.3,89,0.00,,,0.00,WUHU216CR1000,2013-07-16 16:46:00,
2013-07-16 09:51:00,55.5,52.5,0.00,SSE,154,1.8,3.9,89,0.00,,,0.00,WUHU216CR1000,2013-07-16 16:51:00,
2013-07-16 09:56:00,55.5,52.5,0.00,SSE,154,1.8,3.9,89,0.00,,,0.00,WUHU216CR1000,2013-07-16 16:56:00,
2013-07-16 10:01:00,56.0,52.3,0.00,South,172,1.9,6.1,87,0.00,,,0.00,WUHU216CR1000,2013-07-16 17:01:00,
2013-07-16 10:06:00,56.0,52.3,0.00,South,172,1.9,6.1,87,0.00,,,0.00,WUHU216CR1000,2013-07-16 17:06:00,
2013-07-16 10:11:00,56.0,52.3,0.00,South,172,1.9,6.1,87,0.00,,,0.00,WUHU216CR1000,2013-07-16 17:11:00,
2013-07-16 10:16:00,56.2,52.2,0.00,South,177,2.6,6.1,86,0.00,,,0.00,WUHU216CR1000,2013-07-16 17:16:00,
2013-07-16 10:21:00,56.2,52.2,0.00,South,177,2.6,5.5,86,0.00,,,0.00,WUHU216CR1000,2013-07-16 17:21:00,
2013-07-16 10:26:00,56.2,52.2,0.00,South,177,2.6,5.5,86,0.00,,,0.00,WUHU216CR1000,2013-07-16 17:26:00,
2013-07-16 10:31:00,56.2,52.4,0.00,South,191,2.2,5.6,87,0.00,,,0.00,WUHU216CR1000,2013-07-16 17:31:00,
2013-07-16 10:36:00,56.2,52.4,0.00,South,191,2.2,5.6,87,0.00,,,0.00,WUHU216CR1000,2013-07-16 17:36:00,
2013-07-16 10:41:00,56.2,52.4,0.00,South,191,2.2,5.6,87,0.00,,,0.00,WUHU216CR1000,2013-07-16 17:41:00,
2013-07-16 10:46:00,56.4,52.5,0.00,SSW,207,2.3,5.6,87,0.00,,,0.00,WUHU216CR1000,2013-07-16 17:46:00,
2013-07-16 10:51:00,56.4,52.5,0.00,SSW,207,2.3,5.3,87,0.00,,,0.00,WUHU216CR1000,2013-07-16 17:51:00,
2013-07-16 10:56:00,56.4,52.5,0.00,SSW,207,2.3,5.3,87,0.00,,,0.00,WUHU216CR1000,2013-07-16 17:56:00,
2013-07-16 11:01:00,56.3,52.3,0.00,SW,224,2.7,6.2,86,0.00,,,0.00,WUHU216CR1000,2013-07-16 18:01:00,
2013-07-16 11:06:00,56.3,52.3,0.00,SW,224,2.7,6.2,86,0.00,,,0.00,WUHU216CR1000,2013-07-16 18:06:00,
2013-07-16 11:11:00,56.3,52.3,0.00,SW,224,2.7,6.2,86,0.00,,,0.00,WUHU216CR1000,2013-07-16 18:11:00,
2013-07-16 11:16:00,56.7,52.3,0.00,SSW,205,2.7,6.2,85,0.00,,,0.00,WUHU216CR1000,2013-07-16 18:16:00,
2013-07-16 11:21:00,56.7,52.3,0.00,SSW,205,2.7,6.1,85,0.00,,,0.00,WUHU216CR1000,2013-07-16 18:21:00,
2013-07-16 11:26:00,56.7,52.3,0.00,SSW,205,2.7,6.1,85,0.00,,,0.00,WUHU216CR1000,2013-07-16 18:26:00,
2013-07-16 11:31:00,57.1,52.4,0.00,South,188,2.1,6.2,84,0.00,,,0.00,WUHU216CR1000,2013-07-16 18:31:00,
2013-07-16 11:36:00,57.1,52.4,0.00,South,188,2.1,6.2,84,0.00,,,0.00,WUHU216CR1000,2013-07-16 18:36:00,
2013-07-16 11:41:00,57.1,52.4,0.00,South,188,2.1,6.2,84,0.00,,,0.00,WUHU216CR1000,2013-07-16 18:41:00,
2013-07-16 11:46:00,58.1,52.3,0.00,SSE,157,2.0,6.2,81,0.00,,,0.00,WUHU216CR1000,2013-07-16 18:46:00,
2013-07-16 11:51:00,58.1,52.3,0.00,SSE,157,2.0,4.3,81,0.00,,,0.00,WUHU216CR1000,2013-07-16 18:51:00,
2013-07-16 11:56:00,58.1,52.3,0.00,SSE,157,2.0,4.3,81,0.00,,,0.00,WUHU216CR1000,2013-07-16 18:56:00,
2013-07-16 12:01:00,58.2,52.5,0.00,SW,234,1.8,4.3,81,0.00,,,0.00,WUHU216CR1000,2013-07-16 19:01:00,
2013-07-16 12:06:00,58.2,52.5,0.00,SW,234,1.8,4.1,81,0.00,,,0.00,WUHU216CR1000,2013-07-16 19:06:00,
2013-07-16 12:11:00,58.2,52.5,0.00,SW,234,1.8,4.1,81,0.00,,,0.00,WUHU216CR1000,2013-07-16 19:11:00,
2013-07-16 12:16:00,58.8,52.5,0.00,WSW,248,1.6,6.1,80,0.00,,,0.00,WUHU216CR1000,2013-07-16 19:16:00,
2013-07-16 12:21:00,58.8,52.5,0.00,WSW,248,1.6,6.1,80,0.00,,,0.00,WUHU216CR1000,2013-07-16 19:21:00,
2013-07-16 12:26:00,58.8,52.5,0.00,WSW,248,1.6,6.1,80,0.00,,,0.00,WUHU216CR1000,2013-07-16 19:26:00,
2013-07-16 12:31:00,59.8,52.7,0.00,North,10,2.3,6.1,78,0.00,,,0.00,WUHU216CR1000,2013-07-16 19:31:00,
2013-07-16 12:36:00,59.8,52.7,0.00,North,10,2.3,4.5,78,0.00,,,0.00,WUHU216CR1000,2013-07-16 19:36:00,
2013-07-16 12:41:00,59.8,52.7,0.00,North,10,2.3,4.5,78,0.00,,,0.00,WUHU216CR1000,2013-07-16 19:41:00,
2013-07-16 12:46:00,60.4,53.0,0.00,WNW,293,2.4,5.4,77,0.00,,,0.00,WUHU216CR1000,2013-07-16 19:46:00,
2013-07-16 12:51:00,60.4,53.0,0.00,WNW,293,2.4,5.4,77,0.00,,,0.00,WUHU216CR1000,2013-07-16 19:51:00,
2013-07-16 12:56:00,60.4,53.0,0.00,WNW,293,2.4,5.4,77,0.00,,,0.00,WUHU216CR1000,2013-07-16 19:56:00,
2013-07-16 13:01:00,61.1,53.0,0.00,SE,142,1.2,5.4,75,0.00,,,0.00,WUHU216CR1000,2013-07-16 20:01:00,
2013-07-16 13:06:00,61.1,53.0,0.00,SE,142,1.2,4.1,75,0.00,,,0.00,WUHU216CR1000,2013-07-16 20:06:00,
2013-07-16 13:11:00,61.1,53.0,0.00,SE,142,1.2,4.1,75,0.00,,,0.00,WUHU216CR1000,2013-07-16 20:11:00,
2013-07-16 13:16:00,61.9,53.4,0.00,SW,232,2.3,5.4,74,0.00,,,0.00,WUHU216CR1000,2013-07-16 20:16:00,
2013-07-16 13:21:00,61.9,53.4,0.00,SW,232,2.3,5.4,74,0.00,,,0.00,WUHU216CR1000,2013-07-16 20:21:00,
2013-07-16 13:26:00,61.9,53.4,0.00,SW,232,2.3,5.4,74,0.00,,,0.00,WUHU216CR1000,2013-07-16 20:26:00,
2013-07-16 13:31:00,62.1,53.5,0.00,SW,234,2.5,8.6,73,0.00,,,0.00,WUHU216CR1000,2013-07-16 20:31:00,
2013-07-16 13:36:00,62.1,53.5,0.00,SW,234,2.5,8.6,73,0.00,,,0.00,WUHU216CR1000,2013-07-16 20:36:00,
2013-07-16 13:41:00,62.1,53.5,0.00,SW,234,2.5,8.6,73,0.00,,,0.00,WUHU216CR1000,2013-07-16 20:41:00,
2013-07-16 13:46:00,62.8,53.8,0.00,SW,230,2.3,8.6,72,0.00,,,0.00,WUHU216CR1000,2013-07-16 20:46:00,
2013-07-16 13:51:00,62.8,53.8,0.00,SW,230,2.3,7.5,72,0.00,,,0.00,WUHU216CR1000,2013-07-16 20:51:00,
2013-07-16 13:56:00,62.8,53.8,0.00,SW,230,2.3,7.5,72,0.00,,,0.00,WUHU216CR1000,2013-07-16 20:56:00,
2013-07-16 14:01:00,63.4,54.1,0.00,SW,231,3.2,8.3,72,0.00,,,0.00,WUHU216CR1000,2013-07-16 21:01:00,
2013-07-16 14:06:00,63.4,54.1,0.00,SW,231,3.2,8.3,72,0.00,,,0.00,WUHU216CR1000,2013-07-16 21:06:00,
2013-07-16 14:11:00,63.4,54.1,0.00,SW,231,3.2,8.3,72,0.00,,,0.00,WUHU216CR1000,2013-07-16 21:11:00,
2013-07-16 14:16:00,63.7,54.4,0.00,West,265,2.6,8.3,72,0.00,,,0.00,WUHU216CR1000,2013-07-16 21:16:00,
2013-07-16 14:21:00,63.7,54.4,0.00,West,265,2.6,6.8,72,0.00,,,0.00,WUHU216CR1000,2013-07-16 21:21:00,
2013-07-16 14:26:00,63.7,54.4,0.00,West,265,2.6,6.8,72,0.00,,,0.00,WUHU216CR1000,2013-07-16 21:26:00,
2013-07-16 14:31:00,64.8,54.5,0.00,SW,221,3.3,9.1,69,0.00,,,0.00,WUHU216CR1000,2013-07-16 21:31:00,
2013-07-16 14:36:00,64.8,54.5,0.00,SW,221,3.3,9.1,69,0.00,,,0.00,WUHU216CR1000,2013-07-16 21:36:00,
2013-07-16 14:41:00,64.8,54.5,0.00,SW,221,3.3,9.1,69,0.00,,,0.00,WUHU216CR1000,2013-07-16 21:41:00,
2013-07-16 14:46:00,65.3,54.7,0.00,SW,231,4.1,9.8,69,0.00,,,0.00,WUHU216CR1000,2013-07-16 21:46:00,
2013-07-16 14:51:00,65.3,54.7,0.00,SW,231,4.1,9.8,69,0.00,,,0.00,WUHU216CR1000,2013-07-16 21:51:00,
2013-07-16 14:56:00,65.3,54.7,0.00,SW,231,4.1,9.8,69,0.00,,,0.00,WUHU216CR1000,2013-07-16 21:56:00,
2013-07-16 15:01:00,66.4,55.1,0.00,SW,226,3.8,9.8,67,0.00,,,0.00,WUHU216CR1000,2013-07-16 22:01:00,
2013-07-16 15:06:00,66.4,55.1,0.00,SW,226,3.8,8.3,67,0.00,,,0.00,WUHU216CR1000,2013-07-16 22:06:00,
2013-07-16 15:11:00,66.4,55.1,0.00,SW,226,3.8,8.3,67,0.00,,,0.00,WUHU216CR1000,2013-07-16 22:11:00,
2013-07-16 15:16:00,67.0,55.8,0.00,South,187,3.9,8.3,67,0.00,,,0.00,WUHU216CR1000,2013-07-16 22:16:00,
2013-07-16 15:21:00,67.0,55.8,0.00,South,187,3.9,7.8,67,0.00,,,0.00,WUHU216CR1000,2013-07-16 22:21:00,
2013-07-16 15:26:00,67.0,55.8,0.00,South,187,3.9,7.8,67,0.00,,,0.00,WUHU216CR1000,2013-07-16 22:26:00,
2013-07-16 15:31:00,67.0,55.8,0.00,South,187,3.9,7.8,67,0.00,,,0.00,WUHU216CR1000,2013-07-16 22:31:00,
2013-07-16 15:36:00,67.0,55.8,0.00,South,187,3.9,7.8,67,0.00,,,0.00,WUHU216CR1000,2013-07-16 22:36:00,
2013-07-16 15:41:00,67.0,55.8,0.00,South,187,3.9,7.8,67,0.00,,,0.00,WUHU216CR1000,2013-07-16 22:41:00,
2013-07-16 15:46:00,67.0,55.9,0.00,SSW,202,4.6,9.9,67,0.00,,,0.00,WUHU216CR1000,2013-07-16 22:46:00,
2013-07-16 15:51:00,67.0,55.9,0.00,SSW,202,4.6,9.9,67,0.00,,,0.00,WUHU216CR1000,2013-07-16 22:51:00,
2013-07-16 15:56:00,67.0,55.9,0.00,SSW,202,4.6,9.9,67,0.00,,,0.00,WUHU216CR1000,2013-07-16 22:56:00,
2013-07-16 16:01:00,67.5,56.3,0.00,SSW,193,4.0,9.9,67,0.00,,,0.00,WUHU216CR1000,2013-07-16 23:01:00,
2013-07-16 16:06:00,67.5,56.3,0.00,SSW,193,4.0,8.9,67,0.00,,,0.00,WUHU216CR1000,2013-07-16 23:06:00,
2013-07-16 16:11:00,67.5,56.3,0.00,SSW,193,4.0,8.9,67,0.00,,,0.00,WUHU216CR1000,2013-07-16 23:11:00,
2013-07-16 16:16:00,67.7,56.2,0.00,SSW,198,4.9,11.2,67,0.00,,,0.00,WUHU216CR1000,2013-07-16 23:16:00,
2013-07-16 16:21:00,67.7,56.2,0.00,SSW,198,4.9,11.2,67,0.00,,,0.00,WUHU216CR1000,2013-07-16 23:21:00,
2013-07-16 16:26:00,67.7,56.2,0.00,SSW,198,4.9,11.2,67,0.00,,,0.00,WUHU216CR1000,2013-07-16 23:26:00,
2013-07-16 16:31:00,67.8,56.4,0.00,SSW,202,4.2,11.2,67,0.00,,,0.00,WUHU216CR1000,2013-07-16 23:31:00,
2013-07-16 16:36:00,67.8,56.4,0.00,SSW,202,4.2,10.3,67,0.00,,,0.00,WUHU216CR1000,2013-07-16 23:36:00,
2013-07-16 16:41:00,67.8,56.4,0.00,SSW,202,4.2,10.3,67,0.00,,,0.00,WUHU216CR1000,2013-07-16 23:41:00,
2013-07-16 16:46:00,68.3,56.4,0.00,SW,220,4.6,10.3,66,0.00,,,0.00,WUHU216CR1000,2013-07-16 23:46:00,
2013-07-16 16:51:00,68.3,56.4,0.00,SW,220,4.6,9.6,66,0.00,,,0.00,WUHU216CR1000,2013-07-16 23:51:00,
2013-07-16 16:56:00,68.3,56.4,0.00,SW,220,4.6,9.6,66,0.00,,,0.00,WUHU216CR1000,2013-07-16 23:56:00,
2013-07-16 17:01:00,68.4,56.4,0.00,SW,222,4.6,11.8,65,0.00,,,0.00,WUHU216CR1000,2013-07-17 00:01:00,
2013-07-16 17:06:00,68.4,56.4,0.00,SW,222,4.6,11.8,65,0.00,,,0.00,WUHU216CR1000,2013-07-17 00:06:00,
2013-07-16 17:11:00,68.4,56.4,0.00,SW,222,4.6,11.8,65,0.00,,,0.00,WUHU216CR1000,2013-07-17 00:11:00,
2013-07-16 17:16:00,68.7,56.3,0.00,SW,222,4.1,11.8,65,0.00,,,0.00,WUHU216CR1000,2013-07-17 00:16:00,
2013-07-16 17:21:00,68.7,56.3,0.00,SW,222,4.1,10.3,65,0.00,,,0.00,WUHU216CR1000,2013-07-17 00:21:00,
2013-07-16 17:26:00,68.7,56.3,0.00,SW,222,4.1,10.3,65,0.00,,,0.00,WUHU216CR1000,2013-07-17 00:26:00,
2013-07-16 17:31:00,68.5,56.3,0.00,SSW,203,4.6,10.3,65,0.00,,,0.00,WUHU216CR1000,2013-07-17 00:31:00,
2013-07-16 17:36:00,68.5,56.3,0.00,SSW,203,4.6,9.8,65,0.00,,,0.00,WUHU216CR1000,2013-07-17 00:36:00,
2013-07-16 17:41:00,68.5,56.3,0.00,SSW,203,4.6,9.8,65,0.00,,,0.00,WUHU216CR1000,2013-07-17 00:41:00,
2013-07-16 17:46:00,68.2,55.9,0.00,SSW,200,5.1,10.7,65,0.00,,,0.00,WUHU216CR1000,2013-07-17 00:46:00,
2013-07-16 17:51:00,68.2,55.9,0.00,SSW,200,5.1,10.7,65,0.00,,,0.00,WUHU216CR1000,2013-07-17 00:51:00,
2013-07-16 17:56:00,68.2,55.9,0.00,SSW,200,5.1,10.7,65,0.00,,,0.00,WUHU216CR1000,2013-07-17 00:56:00,
2013-07-16 18:01:00,68.2,55.9,0.00,SW,232,4.3,10.7,65,0.00,,,0.00,WUHU216CR1000,2013-07-17 01:01:00,
2013-07-16 18:06:00,68.2,55.9,0.00,SW,232,4.3,9.9,65,0.00,,,0.00,WUHU216CR1000,2013-07-17 01:06:00,
2013-07-16 18:11:00,68.2,55.9,0.00,SW,232,4.3,9.9,65,0.00,,,0.00,WUHU216CR1000,2013-07-17 01:11:00,
2013-07-16 18:16:00,67.6,55.5,0.00,SW,226,4.9,13.0,65,0.00,,,0.00,WUHU216CR1000,2013-07-17 01:16:00,
2013-07-16 18:21:00,67.6,55.5,0.00,SW,226,4.9,13.0,65,0.00,,,0.00,WUHU216CR1000,2013-07-17 01:21:00,
2013-07-16 18:26:00,67.6,55.5,0.00,SW,226,4.9,13.0,65,0.00,,,0.00,WUHU216CR1000,2013-07-17 01:26:00,
2013-07-16 18:31:00,67.3,55.3,0.00,SW,223,4.8,13.0,66,0.00,,,0.00,WUHU216CR1000,2013-07-17 01:31:00,
2013-07-16 18:36:00,67.3,55.3,0.00,SW,223,4.8,9.1,66,0.00,,,0.00,WUHU216CR1000,2013-07-17 01:36:00,
2013-07-16 18:41:00,67.3,55.3,0.00,SW,223,4.8,9.1,66,0.00,,,0.00,WUHU216CR1000,2013-07-17 01:41:00,
2013-07-16 18:46:00,66.4,55.0,0.00,SW,220,4.9,10.1,67,0.00,,,0.00,WUHU216CR1000,2013-07-17 01:46:00,
2013-07-16 18:51:00,66.4,55.0,0.00,SW,220,4.9,10.1,67,0.00,,,0.00,WUHU216CR1000,2013-07-17 01:51:00,
2013-07-16 18:56:00,66.4,55.0,0.00,SW,220,4.9,10.1,67,0.00,,,0.00,WUHU216CR1000,2013-07-17 01:56:00,
2013-07-16 19:01:00,65.9,55.2,0.00,SW,230,4.6,10.1,68,0.00,,,0.00,WUHU216CR1000,2013-07-17 02:01:00,
2013-07-16 19:06:00,65.9,55.2,0.00,SW,230,4.6,10.1,68,0.00,,,0.00,WUHU216CR1000,2013-07-17 02:06:00,
2013-07-16 19:11:00,65.9,55.2,0.00,SW,230,4.6,10.1,68,0.00,,,0.00,WUHU216CR1000,2013-07-17 02:11:00,
2013-07-16 19:16:00,65.5,55.1,0.00,SW,220,3.4,10.1,69,0.00,,,0.00,WUHU216CR1000,2013-07-17 02:16:00,
2013-07-16 19:21:00,65.5,55.1,0.00,SW,220,3.4,9.5,69,0.00,,,0.00,WUHU216CR1000,2013-07-17 02:21:00,
2013-07-16 19:26:00,65.5,55.1,0.00,SW,220,3.4,9.5,69,0.00,,,0.00,WUHU216CR1000,2013-07-17 02:26:00,
2013-07-16 19:31:00,65.2,55.0,0.00,SW,226,3.8,9.5,70,0.00,,,0.00,WUHU216CR1000,2013-07-17 02:31:00,
2013-07-16 19:36:00,65.2,55.0,0.00,SW,226,3.8,7.6,70,0.00,,,0.00,WUHU216CR1000,2013-07-17 02:36:00,
2013-07-16 19:41:00,65.2,55.0,0.00,SW,226,3.8,7.6,70,0.00,,,0.00,WUHU216CR1000,2013-07-17 02:41:00,
2013-07-16 19:46:00,64.0,54.8,0.00,SW,229,4.3,9.8,72,0.00,,,0.00,WUHU216CR1000,2013-07-17 02:46:00,
2013-07-16 19:51:00,64.0,54.8,0.00,SW,229,4.3,9.8,72,0.00,,,0.00,WUHU216CR1000,2013-07-17 02:51:00,
2013-07-16 19:56:00,64.0,54.8,0.00,SW,229,4.3,9.8,72,0.00,,,0.00,WUHU216CR1000,2013-07-17 02:56:00,
2013-07-16 20:01:00,62.6,54.6,0.00,SW,226,5.1,9.9,75,0.00,,,0.00,WUHU216CR1000,2013-07-17 03:01:00,
2013-07-16 20:06:00,62.6,54.6,0.00,SW,226,5.1,9.9,75,0.00,,,0.00,WUHU216CR1000,2013-07-17 03:06:00,
2013-07-16 20:11:00,62.6,54.6,0.00,SW,226,5.1,9.9,75,0.00,,,0.00,WUHU216CR1000,2013-07-17 03:11:00,
2013-07-16 20:16:00,61.6,54.2,0.00,SW,224,4.7,11.1,77,0.00,,,0.00,WUHU216CR1000,2013-07-17 03:16:00,
2013-07-16 20:21:00,61.6,54.2,0.00,SW,224,4.7,11.1,77,0.00,,,0.00,WUHU216CR1000,2013-07-17 03:21:00,
2013-07-16 20:26:00,61.6,54.2,0.00,SW,224,4.7,11.1,77,0.00,,,0.00,WUHU216CR1000,2013-07-17 03:26:00,
2013-07-16 20:31:00,60.6,54.0,0.00,SW,230,3.6,11.1,79,0.00,,,0.00,WUHU216CR1000,2013-07-17 03:31:00,
2013-07-16 20:36:00,60.6,54.0,0.00,SW,230,3.6,7.3,79,0.00,,,0.00,WUHU216CR1000,2013-07-17 03:36:00,
2013-07-16 20:41:00,60.6,54.0,0.00,SW,230,3.6,7.3,79,0.00,,,0.00,WUHU216CR1000,2013-07-17 03:41:00,
2013-07-16 20:46:00,59.7,53.9,0.00,SW,230,3.3,7.5,81,0.00,,,0.00,WUHU216CR1000,2013-07-17 03:46:00,
2013-07-16 20:51:00,59.7,53.9,0.00,SW,230,3.3,7.5,81,0.00,,,0.00,WUHU216CR1000,2013-07-17 03:51:00,
2013-07-16 20:56:00,59.7,53.9,0.00,SW,230,3.3,7.5,81,0.00,,,0.00,WUHU216CR1000,2013-07-17 03:56:00,
2013-07-16 21:01:00,59.7,53.9,0.00,SW,230,3.3,7.5,81,0.00,,,0.00,WUHU216CR1000,2013-07-17 04:01:00,
2013-07-16 21:02:00,59.2,53.8,0.00,SW,230,3.4,7.5,82,0.00,,,0.00,WUHU216CR1000,2013-07-17 04:02:00,
2013-07-16 21:07:00,59.2,53.8,0.00,SW,230,3.4,6.4,82,0.00,,,0.00,WUHU216CR1000,2013-07-17 04:07:00,
2013-07-16 21:12:00,59.2,53.8,0.00,SW,230,3.4,6.4,82,0.00,,,0.00,WUHU216CR1000,2013-07-17 04:12:00,
2013-07-16 21:17:00,58.6,53.7,0.00,SW,232,3.3,6.4,84,0.00,,,0.00,WUHU216CR1000,2013-07-17 04:17:00,
2013-07-16 21:22:00,58.6,53.7,0.00,SW,232,3.3,6.4,84,0.00,,,0.00,WUHU216CR1000,2013-07-17 04:22:00,
2013-07-16 21:27:00,58.6,53.7,0.00,SW,232,3.3,6.4,84,0.00,,,0.00,WUHU216CR1000,2013-07-17 04:27:00,
2013-07-16 21:32:00,58.1,53.7,0.00,WSW,244,3.3,7.1,85,0.00,,,0.00,WUHU216CR1000,2013-07-17 04:32:00,
2013-07-16 21:37:00,58.1,53.7,0.00,WSW,244,3.3,7.1,85,0.00,,,0.00,WUHU216CR1000,2013-07-17 04:37:00,
2013-07-16 21:42:00,58.1,53.7,0.00,WSW,244,3.3,7.1,85,0.00,,,0.00,WUHU216CR1000,2013-07-17 04:42:00,
2013-07-16 21:47:00,57.5,53.7,0.00,WSW,254,2.2,7.1,87,0.00,,,0.00,WUHU216CR1000,2013-07-17 04:47:00,
2013-07-16 21:52:00,57.5,53.7,0.00,WSW,254,2.2,4.7,87,0.00,,,0.00,WUHU216CR1000,2013-07-17 04:52:00,
2013-07-16 21:55:00,57.5,53.7,0.00,WSW,254,2.2,4.7,87,0.00,,,0.00,WUHU216CR1000,2013-07-17 04:55:00,
2013-07-16 21:59:00,57.5,53.7,0.00,WSW,254,2.2,4.7,87,0.00,,,0.00,WUHU216CR1000,2013-07-17 04:59:00,
2013-07-16 22:04:00,57.4,53.7,0.00,SW,234,3.2,7.8,88,0.00,,,0.00,WUHU216CR1000,2013-07-17 05:04:00,
2013-07-16 22:09:00,57.4,53.7,0.00,SW,234,3.2,7.8,88,0.00,,,0.00,WUHU216CR1000,2013-07-17 05:09:00,
2013-07-16 22:14:00,57.4,53.7,0.00,SW,234,3.2,7.8,88,0.00,,,0.00,WUHU216CR1000,2013-07-17 05:14:00,
2013-07-16 22:19:00,57.3,53.7,0.00,SW,226,3.9,8.3,88,0.00,,,0.00,WUHU216CR1000,2013-07-17 05:19:00,
2013-07-16 22:24:00,57.3,53.7,0.00,SW,226,3.9,8.3,88,0.00,,,0.00,WUHU216CR1000,2013-07-17 05:24:00,
2013-07-16 22:29:00,57.3,53.7,0.00,SW,226,3.9,8.3,88,0.00,,,0.00,WUHU216CR1000,2013-07-17 05:29:00,
2013-07-16 22:34:00,57.0,53.7,0.00,SW,229,3.1,8.3,88,0.00,,,0.00,WUHU216CR1000,2013-07-17 05:34:00,
2013-07-16 22:39:00,57.0,53.7,0.00,SW,229,3.1,7.1,88,0.00,,,0.00,WUHU216CR1000,2013-07-17 05:39:00,
2013-07-16 22:44:00,57.0,53.7,0.00,SW,229,3.1,7.1,88,0.00,,,0.00,WUHU216CR1000,2013-07-17 05:44:00,
2013-07-16 22:49:00,56.8,53.6,0.00,SW,220,2.6,7.1,89,0.00,,,0.00,WUHU216CR1000,2013-07-17 05:49:00,
2013-07-16 22:54:00,56.8,53.6,0.00,SW,220,2.6,6.2,89,0.00,,,0.00,WUHU216CR1000,2013-07-17 05:54:00,
2013-07-16 22:59:00,56.8,53.6,0.00,SW,220,2.6,6.2,89,0.00,,,0.00,WUHU216CR1000,2013-07-17 05:59:00,
2013-07-16 23:04:00,56.4,53.5,0.00,SW,234,2.4,6.2,90,0.00,,,0.00,WUHU216CR1000,2013-07-17 06:04:00,
2013-07-16 23:09:00,56.4,53.5,0.00,SW,234,2.4,4.9,90,0.00,,,0.00,WUHU216CR1000,2013-07-17 06:09:00,
2013-07-16 23:14:00,56.4,53.5,0.00,SW,234,2.4,4.9,90,0.00,,,0.00,WUHU216CR1000,2013-07-17 06:14:00,
2013-07-16 23:19:00,56.0,53.4,0.00,SW,231,2.2,4.9,91,0.00,,,0.00,WUHU216CR1000,2013-07-17 06:19:00,
2013-07-16 23:24:00,56.0,53.4,0.00,SW,231,2.2,4.3,91,0.00,,,0.00,WUHU216CR1000,2013-07-17 06:24:00,
2013-07-16 23:29:00,56.0,53.4,0.00,SW,231,2.2,4.3,91,0.00,,,0.00,WUHU216CR1000,2013-07-17 06:29:00,
2013-07-16 23:34:00,55.9,53.4,0.00,SW,227,2.6,6.1,91,0.00,,,0.00,WUHU216CR1000,2013-07-17 06:34:00,
2013-07-16 23:39:00,55.9,53.4,0.00,SW,227,2.6,6.1,91,0.00,,,0.00,WUHU216CR1000,2013-07-17 06:39:00,
2013-07-16 23:44:00,55.9,53.4,0.00,SW,227,2.6,6.1,91,0.00,,,0.00,WUHU216CR1000,2013-07-17 06:44:00,
2013-07-16 23:49:00,55.6,53.1,0.00,SW,219,1.3,6.1,91,0.00,,,0.00,WUHU216CR1000,2013-07-17 06:49:00,
2013-07-16 23:54:00,55.6,53.1,0.00,SW,219,1.3,2.9,91,0.00,,,0.00,WUHU216CR1000,2013-07-17 06:54:00,
2013-07-16 23:59:00,55.6,53.1,0.00,SW,219,1.3,2.9,91,0.00,,,0.00,WUHU216CR1000,2013-07-17 06:59:00,